星链-35925(STARLINK-35925)

导读

STARLINK-35925是美国SpaceX公司于2025年12月4日发射的星链计划卫星,星链旨在打造全球低轨宽带互联网星座,为全球提供高速低延迟网络服务。该卫星属于量产型星链卫星,部署于近地轨道,采用氪工质霍尔推进器,具备自主避撞能力,寿命末期会主动离轨再入大气层销毁。作为星链组网的组成部分,它进一步扩容了星链星座规模,助力覆盖全球的互联网接入服务,同时延续星链技术方案,保障星座运行稳定性与可靠性。

基本信息
目录编号:
66887
目录名称:
STARLINK-35925
国际标识:
2025-283K
轨道中心:
EARTH
卫星名称:
星链-35925
卫星全名:
星链-35925(STARLINK-35925)
卫星状态:
在轨 (已飞行274 天)
发射日期:
2025-12-04 UTC
国别 :
美国 (US)
星等 :
--
轨道信息
数据来源 国际轨道数据
星历时间: 2026-09-04T01:16:34+0800
13小时前
查看轨道信息
半长轴: 6840.856km
偏心率: 0.0001144
轨道倾角: 53.160°
近地点辐角 77.178°
升交点赤经 274.239°
平近点角 282.935°
近地点: 461.936km
远地点: 463.502km
周期: 93.848分钟
每日圈数: 15.343949
详细信息
固有亮度:
5
最大亮度:
2.5
卫星平台:
Starlink V1.0
覆盖范围:
全球
运营商:
太空探索技术公司
运营商所在国:
美国
制造商(研发单位):
太空探索技术公司
制造商所在国:
美国
使用方式:
暂无
卫星简介
Starlink 计划是 SpaceX 推出的全球卫星互联网项目,通过发射低轨道卫星,为全球尤其是偏远地区提供高速、低延迟的互联网服务。自 2019 年起,Starlink 已部署数千颗卫星,旨在缩小全球数字鸿沟,推动互联网普及。该项目还为军事、航空等行业提供通信支持,带来广泛经济效益。
2D轨道图
3D轨道图
轨道高度分析图
轨道倾角分析图
轨道综合分析图
查看轨道综合分析图
交会数据列表
事件ID 空间交会对象 最接近时刻(TCA) 交会距离 交会风险概率(CRP) 交会风险指数(CRI) 操作
CDM_260904-220606-473006-688721
2026-09-04T
22:06:52+0000
0.604 km
远距离
1.131263E-4 高风险 0.76
CDM_260905-112406-473006-688721
2026-09-05T
11:24:08+0000
1.099 km
极远距离
1.687861E-5 中风险 0.6
CDM_260905-094705-811206-688721
2026-09-05T
09:47:44+0000
2.485 km
极远距离
1.538386E-6 低风险 0.39
CDM_260905-115505-996006-688721
2026-09-05T
11:55:38+0000
2.814 km
极远距离
7.324321E-7 极低风险 0.32